Date,TemperatureHighF,TemperatureAvgF,TemperatureLowF,DewpointHighF,DewpointAvgF,DewpointLowF,HumidityHigh,HumidityAvg,HumidityLow,PressureMaxIn,PressureMinIn,WindSpeedMaxMPH,WindSpeedAvgMPH,GustSpeedMaxMPH,PrecipitationSumIn
2013-3-1,27,16,9,15,10,4,81,74,59,30.32,30.24,60,60,60,0.01
2013-3-2,24,15,2,14,7,-3,82,69,49,30.27,30.05,60,60,60,0.00
2013-3-3,32,24,14,22,14,7,77,64,49,30.05,29.86,60,60,60,0.01
2013-3-4,28,25,24,23,20,14,88,82,55,29.98,29.84,60,60,60,0.00
2013-3-5,26,23,19,21,18,14,90,82,76,30.32,29.98,60,60,60,0.13
2013-3-6,23,19,12,15,12,7,82,76,66,30.35,30.24,60,60,60,0.00
2013-3-7,30,20,11,18,13,6,83,72,55,30.26,30.11,60,60,60,0.01
2013-3-8,33,26,21,24,20,16,82,76,67,30.19,30.01,60,60,60,0.01
2013-3-9,30,28,24,27,24,17,93,84,71,30.01,29.82,60,60,60,0.03
2013-3-10,24,19,7,17,11,0,81,73,64,30.14,30.00,60,60,60,0.05
2013-3-11,24,15,3,14,6,-4,81,68,50,30.04,29.85,60,60,60,0.00
2013-3-12,27,19,8,17,12,2,83,76,63,30.26,29.90,60,60,60,0.01
2013-3-13,27,14,3,21,6,-4,81,71,55,30.30,30.04,60,60,60,0.00
2013-3-14,37,28,21,27,21,16,84,75,65,30.08,30.00,60,60,60,0.01
2013-3-15,22,18,7,17,13,1,86,81,73,30.08,29.93,60,60,60,0.00
2013-3-16,11,3,-4,2,-4,-11,79,70,62,30.25,30.08,60,60,60,0.00
2013-3-17,25,10,-6,22,3,-14,87,73,63,30.23,29.63,60,60,60,0.00
2013-3-18,30,16,4,28,11,-4,92,80,70,29.99,29.53,60,60,60,0.00
2013-3-19,17,7,-3,3,-3,-11,71,63,51,30.27,29.99,60,60,60,0.00
2013-3-20,18,7,-2,4,-3,-10,72,64,50,30.29,30.13,60,60,60,0.00
2013-3-21,19,6,-5,7,-2,-12,76,68,54,30.13,30.06,60,60,60,0.00
2013-3-22,21,10,-2,11,2,-8,77,70,56,30.11,30.05,60,60,60,0.00
2013-3-23,28,17,9,18,10,3,80,72,58,30.15,30.10,60,60,60,0.00
2013-3-24,32,22,13,22,16,8,84,76,60,30.17,30.10,60,60,60,0.00
2013-3-25,29,22,12,19,15,6,80,73,61,30.27,30.16,60,60,60,0.00
2013-3-26,28,16,6,15,8,0,80,70,54,30.28,30.22,60,60,60,0.00
2013-3-27,37,22,7,23,13,2,81,68,50,30.26,30.20,60,60,60,0.00
2013-3-28,40,32,26,28,23,17,84,70,59,30.21,30.16,60,60,60,0.00
2013-3-29,42,30,14,33,25,9,92,82,68,30.17,29.94,60,60,60,0.04
2013-3-30,42,36,30,32,29,27,93,76,64,29.95,29.88,60,60,60,0.51
2013-3-31,39,19,0,29,10,0,74,43,50,30.17,29.86,60,47,60,0.00